TimeMST,TemperatureF,Dew PointF,Humidity,Sea Level PressureIn,VisibilityMPH,Wind Direction,Wind SpeedMPH,Gust SpeedMPH,PrecipitationIn,Events,Conditions,WindDirDegrees,DateUTC
12:53 AM,10.9,8.1,88,30.34,10.0,South,3.5,-,N/A,,Clear,190,2013-01-20 07:53:00
1:53 AM,7.0,5.0,92,30.35,10.0,Calm,Calm,-,N/A,,Clear,0,2013-01-20 08:53:00
2:53 AM,9.0,3.9,80,30.37,10.0,Calm,Calm,-,N/A,,Clear,0,2013-01-20 09:53:00
3:53 AM,10.9,6.1,81,30.37,10.0,SSW,8.1,-,N/A,,Clear,200,2013-01-20 10:53:00
4:53 AM,9.0,6.1,88,30.40,10.0,Calm,Calm,-,N/A,,Clear,0,2013-01-20 11:53:00
5:53 AM,5.0,3.0,92,30.46,10.0,Calm,Calm,-,N/A,,Clear,0,2013-01-20 12:53:00
6:53 AM,1.9,-0.0,91,30.51,10.0,SW,4.6,-,N/A,,Clear,220,2013-01-20 13:53:00
7:53 AM,10.9,6.1,81,30.51,10.0,SSW,9.2,-,N/A,,Mostly Cloudy,200,2013-01-20 14:53:00
8:53 AM,19.0,12.9,77,30.51,10.0,WSW,5.8,-,N/A,,Clear,240,2013-01-20 15:53:00
9:53 AM,26.1,16.0,66,30.52,10.0,NNE,3.5,-,N/A,,Mostly Cloudy,20,2013-01-20 16:53:00
10:53 AM,27.0,17.1,66,30.52,10.0,ENE,3.5,-,N/A,,Overcast,70,2013-01-20 17:53:00
11:53 AM,28.0,18.0,66,30.51,10.0,Calm,Calm,-,N/A,,Overcast,0,2013-01-20 18:53:00
12:53 PM,30.0,16.0,56,30.46,10.0,Calm,Calm,-,N/A,,Clear,0,2013-01-20 19:53:00
1:53 PM,28.9,18.0,64,30.47,10.0,NNE,4.6,-,N/A,,Clear,30,2013-01-20 20:53:00
2:53 PM,28.0,18.0,66,30.46,10.0,NE,4.6,-,N/A,,Unknown,40,2013-01-20 21:53:00
3:53 PM,27.0,18.0,69,30.44,10.0,Calm,Calm,-,N/A,,Clear,0,2013-01-20 22:53:00
4:53 PM,21.9,17.1,82,30.47,10.0,Calm,Calm,-,N/A,,Clear,0,2013-01-20 23:53:00
5:53 PM,12.9,10.0,88,30.51,10.0,East,4.6,-,N/A,,Clear,90,2013-01-21 00:53:00
6:53 PM,14.0,10.0,84,30.53,10.0,Calm,Calm,-,N/A,,Clear,0,2013-01-21 01:53:00
7:53 PM,10.0,8.1,92,30.51,10.0,Calm,Calm,-,N/A,,Clear,0,2013-01-21 02:53:00
8:53 PM,10.0,8.1,92,30.48,10.0,Calm,Calm,-,N/A,,Clear,0,2013-01-21 03:53:00
9:53 PM,9.0,7.0,92,30.45,10.0,Calm,Calm,-,N/A,,Clear,0,2013-01-21 04:53:00
10:53 PM,5.0,1.9,87,30.47,10.0,Calm,Calm,-,N/A,,Clear,0,2013-01-21 05:53:00
11:53 PM,6.1,3.9,91,30.45,10.0,Calm,Calm,-,N/A,,Clear,0,2013-01-21 06:53:00